EN

Hourly Weather Abay

Today, 25 November, Wednesday

Time Temperature Precipitation Wind Pressure Humidity
00:00 -4°C° 0 mm 1 mps 696 mmHg 62%
01:00 -4°C° 0 mm 1 mps 696 mmHg 61%
02:00 -6°C° 0 mm 2 mps 695 mmHg 60%
03:00 -4°C° 0 mm 1 mps 695 mmHg 60%
04:00 -4°C° 0 mm 1 mps 695 mmHg 61%
05:00 -4°C° 0 mm 1 mps 695 mmHg 61%
06:00 -3°C° 0 mm 1 mps 696 mmHg 61%
07:00 -3°C° 0 mm 1 mps 696 mmHg 61%
08:00 -3°C° 0 mm 1 mps 696 mmHg 61%
09:00 -2°C° 0 mm 1 mps 696 mmHg 61%
10:00 0°C° 0 mm 1 mps 696 mmHg 61%
11:00 +1°C° 0 mm 1 mps 695 mmHg 61%
12:00 +1°C° 0 mm 1 mps 695 mmHg 63%
13:00 +1°C° 0 mm 1 mps 695 mmHg 66%
14:00 +1°C° 0 mm 0 mps 695 mmHg 68%
15:00 0°C° 0 mm 0 mps 695 mmHg 69%
16:00 -1°C° 0 mm 0 mps 695 mmHg 69%
17:00 -3°C° 0 mm 0 mps 695 mmHg 70%
18:00 -2°C° 0 mm 0 mps 696 mmHg 69%
19:00 -2°C° 0 mm 0 mps 696 mmHg 68%
20:00 -2°C° 0 mm 0 mps 696 mmHg 67%
21:00 -3°C° 0 mm 0 mps 696 mmHg 66%
22:00 -3°C° 0 mm 0 mps 696 mmHg 66%
23:00 -3°C° 0 mm 0 mps 696 mmHg 66%

Tomorrow, 26 November, Thursday

Time Temperature Precipitation Wind Pressure Humidity
00:00 -3°C° 0 mm 0 mps 696 mmHg 66%
01:00 -2°C° 0 mm 1 mps 696 mmHg 67%
02:00 -1°C° 0 mm 1 mps 696 mmHg 67%
03:00 -1°C° 0 mm 1 mps 697 mmHg 68%
04:00 -1°C° 0 mm 1 mps 697 mmHg 68%
05:00 -1°C° 0 mm 1 mps 698 mmHg 68%
06:00 -1°C° 0 mm 1 mps 698 mmHg 69%
07:00 -1°C° 0 mm 1 mps 699 mmHg 70%
08:00 -1°C° 0 mm 1 mps 699 mmHg 71%
09:00 0°C° 0 mm 1 mps 699 mmHg 69%
10:00 +1°C° 0 mm 1 mps 699 mmHg 68%
11:00 +2°C° 0 mm 1 mps 699 mmHg 66%
12:00 +2°C° 0 mm 1 mps 699 mmHg 67%
13:00 +2°C° 0 mm 1 mps 699 mmHg 67%
14:00 +3°C° 0 mm 1 mps 699 mmHg 68%
15:00 +1°C° 0 mm 1 mps 699 mmHg 69%
16:00 0°C° 0 mm 1 mps 699 mmHg 70%
17:00 -3°C° 0 mm 2 mps 700 mmHg 72%
18:00 -3°C° 0 mm 2 mps 700 mmHg 69%
19:00 -3°C° 0 mm 2 mps 700 mmHg 66%
20:00 -4°C° 0 mm 3 mps 700 mmHg 63%
21:00 -4°C° 0 mm 3 mps 700 mmHg 62%
22:00 -4°C° 0 mm 3 mps 700 mmHg 60%
23:00 -4°C° 0 mm 3 mps 699 mmHg 59%

Day after tomorrow, 27 November, Friday

Time Temperature Precipitation Wind Pressure Humidity
00:00 -2°C° 0 mm 3 mps 699 mmHg 58%
01:00 -2°C° 0 mm 2 mps 699 mmHg 58%
02:00 -2°C° 0 mm 2 mps 699 mmHg 57%
03:00 -1°C° 0 mm 2 mps 699 mmHg 61%
04:00 -1°C° 0 mm 2 mps 699 mmHg 66%
05:00 -1°C° 0 mm 2 mps 699 mmHg 70%
06:00 +1°C° 0 mm 2 mps 699 mmHg 69%
07:00 +1°C° 0 mm 2 mps 699 mmHg 68%
08:00 0°C° 0 mm 3 mps 699 mmHg 67%
09:00 +1°C° 0 mm 3 mps 698 mmHg 67%
10:00 +2°C° 0 mm 3 mps 697 mmHg 67%
11:00 +3°C° 0 mm 3 mps 697 mmHg 67%
12:00 +3°C° 0 mm 3 mps 696 mmHg 67%
13:00 +4°C° 0 mm 3 mps 695 mmHg 68%
14:00 +5°C° 0 mm 2 mps 695 mmHg 68%
15:00 +4°C° 0 mm 2 mps 695 mmHg 68%
16:00 +4°C° 0 mm 2 mps 694 mmHg 67%
17:00 +3°C° 0 mm 2 mps 694 mmHg 67%
18:00 +3°C° 0 mm 2 mps 694 mmHg 68%
19:00 +3°C° 0 mm 2 mps 694 mmHg 69%
20:00 +3°C° 0 mm 2 mps 694 mmHg 69%
21:00 +3°C° 0 mm 2 mps 694 mmHg 68%
22:00 +3°C° 0 mm 2 mps 693 mmHg 66%
23:00 +2°C° 0 mm 3 mps 693 mmHg 65%

28 November, Saturday

Time Temperature Precipitation Wind Pressure Humidity
00:00 +2°C° 0 mm 3 mps 693 mmHg 65%
01:00 +2°C° 0 mm 3 mps 693 mmHg 65%
02:00 +2°C° 0 mm 3 mps 693 mmHg 65%
03:00 +2°C° 0 mm 3 mps 693 mmHg 65%
04:00 +1°C° 0 mm 4 mps 694 mmHg 65%
05:00 +3°C° 0 mm 4 mps 694 mmHg 66%
06:00 +1°C° 0.2 mm 4 mps 694 mmHg 74%
07:00 +2°C° 0.2 mm 3 mps 695 mmHg 82%
08:00 +1°C° 0.2 mm 3 mps 695 mmHg 89%
09:00 +1°C° 1.5 mm 3 mps 696 mmHg 92%
10:00 +1°C° 1.5 mm 3 mps 697 mmHg 94%
11:00 +1°C° 1.5 mm 3 mps 699 mmHg 96%
12:00 +1°C° 1 mm 3 mps 700 mmHg 95%
13:00 0°C° 1 mm 3 mps 701 mmHg 93%
14:00 0°C° 1 mm 3 mps 702 mmHg 92%
15:00 -1°C° 1.1 mm 3 mps 703 mmHg 92%
16:00 -2°C° 1.1 mm 3 mps 704 mmHg 92%
17:00 -3°C° 1.1 mm 2 mps 705 mmHg 92%
18:00 -3°C° 0.2 mm 2 mps 706 mmHg 91%
19:00 -2°C° 0.2 mm 1 mps 706 mmHg 90%
20:00 -3°C° 0.2 mm 1 mps 707 mmHg 89%
21:00 -3°C° 0 mm 1 mps 707 mmHg 83%
22:00 -3°C° 0 mm 1 mps 707 mmHg 78%
23:00 -4°C° 0 mm 1 mps 707 mmHg 72%

29 November, Sunday

Time Temperature Precipitation Wind Pressure Humidity
00:00 -4°C° 0 mm 1 mps 707 mmHg 71%
01:00 -4°C° 0 mm 1 mps 707 mmHg 70%
02:00 -4°C° 0 mm 1 mps 707 mmHg 69%
03:00 -4°C° 0 mm 1 mps 707 mmHg 68%
04:00 -4°C° 0 mm 1 mps 707 mmHg 67%
05:00 -6°C° 0 mm 1 mps 708 mmHg 66%
06:00 -4°C° 0 mm 1 mps 708 mmHg 65%
07:00 -4°C° 0 mm 1 mps 708 mmHg 64%
08:00 -4°C° 0 mm 1 mps 708 mmHg 63%
09:00 -3°C° 0 mm 1 mps 707 mmHg 65%
10:00 -1°C° 0 mm 1 mps 707 mmHg 68%
11:00 0°C° 0 mm 1 mps 707 mmHg 71%
12:00 0°C° 0 mm 1 mps 706 mmHg 72%
13:00 0°C° 0 mm 1 mps 706 mmHg 73%
14:00 +1°C° 0 mm 1 mps 705 mmHg 75%
15:00 -1°C° 0 mm 1 mps 705 mmHg 71%
16:00 -2°C° 0 mm 1 mps 705 mmHg 68%
17:00 -3°C° 0 mm 1 mps 705 mmHg 64%
18:00 -3°C° 0 mm 1 mps 705 mmHg 64%
19:00 -4°C° 0 mm 1 mps 705 mmHg 63%
20:00 -4°C° 0 mm 1 mps 705 mmHg 62%
21:00 -4°C° 0 mm 1 mps 705 mmHg 63%
22:00 -4°C° 0 mm 1 mps 705 mmHg 63%
23:00 -4°C° 0 mm 1 mps 705 mmHg 63%

30 November, Monday

Time Temperature Precipitation Wind Pressure Humidity
00:00 -4°C° 0 mm 1 mps 704 mmHg 64%
01:00 -6°C° 0 mm 1 mps 704 mmHg 64%
02:00 -6°C° 0 mm 1 mps 704 mmHg 64%
03:00 -6°C° 0 mm 1 mps 704 mmHg 64%
04:00 -6°C° 0 mm 1 mps 704 mmHg 63%
05:00 -6°C° 0 mm 1 mps 704 mmHg 63%
06:00 -6°C° 0 mm 1 mps 704 mmHg 63%
07:00 -6°C° 0 mm 1 mps 704 mmHg 64%
08:00 -4°C° 0 mm 1 mps 704 mmHg 64%
09:00 -3°C° 0 mm 1 mps 704 mmHg 66%
10:00 -1°C° 0 mm 1 mps 703 mmHg 68%
11:00 0°C° 0 mm 1 mps 703 mmHg 69%
12:00 0°C° 0 mm 1 mps 703 mmHg 70%
13:00 +1°C° 0 mm 1 mps 703 mmHg 71%
14:00 +1°C° 0 mm 1 mps 702 mmHg 72%
15:00 0°C° 0 mm 1 mps 702 mmHg 69%
16:00 -1°C° 0 mm 1 mps 702 mmHg 65%
17:00 -3°C° 0 mm 1 mps 702 mmHg 62%
18:00 -5°C° 0 mm 2 mps 702 mmHg 61%
19:00 -5°C° 0 mm 2 mps 701 mmHg 60%
20:00 -5°C° 0 mm 2 mps 701 mmHg 59%
21:00 -5°C° 0 mm 2 mps 701 mmHg 58%
22:00 -5°C° 0 mm 2 mps 700 mmHg 58%
23:00 -5°C° 0 mm 2 mps 700 mmHg 57%
Show more